[[{"header":{"parameterUnit":"m.s-1","parameterCategory":1,"la1":30.2991,"la2":30.254,"lo1":-89.0895,"lo2":-89.0444,"dy":0.0017,"dx":0.0017,"nx":28,"ny":28,"refTime":"2023-08-10T03:00:00:Z","depth":0,"parameterNumber":2,"parameterNumberName":"U-component_of_WINDS"},"data":[0,0,0,0,0,0,0,0,0,0,0,0,0,0,0,0,0,0,0,0,0,0,0,0,0,0,0,0,0,0,0,0,0,0,0,0,0,0,0,0,0,0,0,0,0,0,0,0,0,0,0,0,0,0,0,0,0,0,5.1405,5.1405,0,5.1433,5.1434,5.1434,5.1317,5.1313,5.131,5.1307,5.1336,5.134,5.1344,0,0,0,0,0,0,0,0,0,0,0,0,0,5.1248,5.1251,5.1405,5.1405,5.1406,5.1433,5.1434,5.1434,5.1318,5.1313,5.1309,5.1305,5.1335,5.1339,5.1344,0,0,0,0,0,0,0,0,0,0,0,0,0,5.13,5.1252,5.1405,5.1351,5.1346,5.1433,5.1434,5.1434,5.1318,5.1313,5.1308,5.1303,5.1333,5.1339,5.1345,5.1485,0,0,5.1363,5.1366,0,0,0,0,0,0,0,0,5.1297,5.1306,5.1358,5.1355,5.135,5.1366,5.1389,5.1451,5.132,5.1329,5.1307,5.1301,5.135,5.1354,5.1371,5.1487,5.1488,5.1364,5.1367,5.137,5.1371,0,0,0,0,0,0,0,5.1294,5.1304,5.1416,5.1359,5.1354,5.1324,5.1326,5.14,5.1368,5.1328,5.1319,5.1324,5.1347,5.1366,5.1371,5.1488,5.1363,5.1369,5.1372,5.1375,5.1716,5.1721,0,0,0,0,0,0,5.1298,5.1302,5.1415,5.1417,5.131,5.1332,5.1333,5.1366,5.1367,5.1362,5.1329,5.1319,5.1358,5.1364,5.1372,5.1532,5.137,5.1375,5.1379,5.171,5.1717,5.1723,0,0,0,0,0,0,5.1295,5.1309,5.1414,5.1357,5.1368,5.134,5.1378,5.137,5.1388,5.1368,5.1361,5.1354,5.1354,5.1363,5.1457,5.1531,5.1378,5.1383,5.1704,5.1712,5.172,5.1857,0,0,0,0,0,0,5.1291,5.1308,5.1362,5.1359,5.1372,5.15,5.1382,5.1374,5.1399,5.1386,5.139,5.1385,5.1351,5.1448,5.1463,5.1537,5.1388,5.1697,5.1707,5.1717,5.1845,5.1869,5.1889,0,0,0,0,0,5.1285,5.1401,5.1365,5.138,5.1438,5.1504,5.1511,5.1469,5.1405,5.1458,5.1445,5.1385,5.1522,5.1459,5.1474,5.1551,5.1692,5.1704,5.1716,5.1836,5.1864,5.1888,0,0,0,0,0,0,5.1413,5.1399,5.136,5.1478,5.1493,5.1485,5.155,5.1501,5.1535,5.1522,5.1468,5.147,5.1572,5.1572,5.1502,5.1685,5.1596,5.1612,5.1681,5.1708,5.1729,5.1725,5.1393,0,0,0,0,0,5.1456,5.1511,5.1495,5.1601,5.161,5.1579,5.1607,5.1573,5.1586,5.1592,5.1585,5.1601,5.1646,5.1678,5.1719,5.1846,5.1843,5.1906,5.1928,5.1946,5.1959,5.2021,5.2048,5.1763,5.1763,5.1763,0,0,5.1543,5.1542,5.158,5.1626,5.1634,5.1691,5.1585,5.1651,5.1692,5.1602,5.1688,5.1685,5.1698,5.1808,5.1856,5.181,5.2037,5.1961,5.1976,5.1979,5.2037,5.2064,5.2088,5.1771,5.177,5.1769,0,0,5.1729,5.1736,5.1822,5.1832,5.1844,5.1823,5.1844,5.1842,5.1835,5.1922,5.1854,5.1903,5.1984,5.1995,5.2011,5.22,5.2145,5.2216,5.2327,5.2389,5.2411,5.2431,5.2494,5.2518,5.223,5.223,5.223,0,5.1835,5.1919,5.1873,5.1941,5.1962,5.1883,5.1969,5.1981,5.2007,5.2023,5.1972,5.2069,5.2074,5.2182,5.2228,5.2246,5.2265,5.2213,5.2412,5.2431,5.2448,5.2508,5.2533,5.2238,5.2237,5.2236,5.2236,0,5.2046,5.2105,5.2173,5.2199,5.2228,5.2305,5.2269,5.2305,5.2268,5.2252,5.2339,5.2341,5.2379,5.2404,5.237,5.2507,5.2478,5.2421,5.2329,5.2484,5.2539,5.2562,5.225,5.2247,5.2244,5.2242,0,0,5.2313,5.2311,5.2336,5.2345,5.2353,5.2397,5.247,5.2507,5.2536,5.2557,5.2615,5.2685,5.263,5.2649,5.2616,5.2671,5.2815,5.2606,5.2605,5.2641,5.2962,5.3002,5.3029,5.278,5.2785,5.2788,5.2959,0,5.2492,5.2616,5.2575,5.27,5.2751,5.2677,5.274,5.2751,5.2737,5.2779,5.2764,5.2812,5.274,5.275,5.2801,5.2787,5.2878,5.2775,5.2831,5.2833,5.2825,5.3059,5.3101,5.3263,5.2981,5.2985,5.2987,0,5.2718,5.2745,5.2875,5.287,5.289,5.2948,5.2976,5.3018,5.3028,5.3014,5.3035,5.2989,5.3058,5.297,5.3063,5.2993,5.3014,5.3011,5.3016,5.3016,5.2917,5.3061,5.3314,5.3336,5.3022,5.3019,5.3016,0,5.2893,5.2963,5.3048,5.3059,5.3058,5.3099,5.31,5.3105,5.3129,5.3155,5.3169,5.3204,5.3222,5.3249,5.3213,5.3153,5.3311,5.322,5.3298,5.3299,5.3332,5.3329,5.3587,5.3353,5.3353,5.3353,5.3352,0,5.3095,5.3176,5.3126,5.3178,5.3266,5.3219,5.3307,5.33,5.3305,5.3354,5.3293,5.334,5.3292,5.3334,5.3307,5.3386,5.3396,5.3385,5.3376,5.3388,5.3388,5.3397,5.3384,5.3359,5.3358,5.3356,5.3355,0,5.3304,5.3275,5.3362,5.3353,5.3352,5.3417,5.3409,5.3456,5.3438,5.35,5.3511,5.3484,5.3529,5.3497,5.3544,5.3526,5.3628,5.3606,5.3624,5.3616,5.3695,5.3687,5.3964,5.3997,5.3746,5.3749,5.3751,0,5.3432,5.3492,5.3489,5.3516,5.3521,5.3567,5.359,5.3547,5.3574,5.3589,5.3633,5.3674,5.3704,5.3781,5.3764,5.3798,5.3774,5.3869,5.3778,5.3787,5.377,5.3765,5.3769,5.3886,5.3889,5.3891,5.3893,0,5.3662,5.3644,5.3679,5.371,5.3739,5.3761,5.3779,5.3805,5.3761,5.3794,5.3839,5.3862,5.3909,5.3948,5.3977,5.3977,5.3927,5.3922,5.3941,5.3952,5.3958,5.3951,5.3669,5.3915,5.3913,5.3911,5.391,5.3909,5.3831,5.3879,5.3883,5.3924,5.3933,5.395,5.3992,5.3979,5.4016,5.4049,5.4022,5.4076,5.4083,5.4115,5.4121,5.4162,5.4123,5.4152,5.4158,5.4165,5.4174,5.3955,5.4168,5.4167,5.4166,5.4166,5.4165,0,5.4053,5.4052,5.409,5.4115,5.4147,5.4098,5.4114,5.4143,5.4191,5.4202,5.4232,5.4283,5.4321,5.4307,5.4341,5.4376,5.4353,5.4385,5.438,5.438,5.4209,5.4187,5.4403,5.4403,5.4403,5.4402,5.4402,5.4402,5.4172,5.4249,5.4232,5.4312,5.431,5.4361,5.4374,5.4389,5.4396,5.4456,5.4487,5.4478,5.4478,5.451,5.4542,5.4537,5.4551,5.459,5.4577,5.4416,5.4393,5.437,5.4349,5.4595,5.4595,5.4743,5.4745,5.4746]},{"header":{"parameterUnit":"m.s-1","parameterCategory":1,"la1":30.2991,"la2":30.254,"lo1":-89.0895,"lo2":-89.0444,"dy":0.0017,"dx":0.0017,"nx":28,"ny":28,"refTime":"2023-08-10T03:00:00:Z","depth":0,"parameterNumber":3,"parameterNumberName":"V-component_of_WINDS"},"data":[0,0,0,0,0,0,0,0,0,0,0,0,0,0,0,0,0,0,0,0,0,0,0,0,0,0,0,0,0,0,0,0,0,0,0,0,0,0,0,0,0,0,0,0,0,0,0,0,0,0,0,0,0,0,0,0,0,0,5.892,5.8921,0,5.9048,5.9049,5.9051,5.9049,5.9047,5.9045,5.9044,5.9168,5.9173,5.9178,0,0,0,0,0,0,0,0,0,0,0,0,0,5.8665,5.8669,5.8919,5.8921,5.8923,5.9047,5.9049,5.9051,5.9049,5.9047,5.9045,5.9043,5.9166,5.9172,5.9178,0,0,0,0,0,0,0,0,0,0,0,0,0,5.8782,5.8671,5.8919,5.8937,5.894,5.9047,5.9049,5.9051,5.9049,5.9047,5.9044,5.9042,5.9164,5.9172,5.9179,5.9275,0,0,5.9201,5.9204,0,0,0,0,0,0,0,0,5.8775,5.8791,5.8933,5.8936,5.8939,5.903,5.9005,5.9126,5.905,5.9008,5.9044,5.9041,5.9124,5.9134,5.9163,5.9281,5.9286,5.9202,5.9206,5.9209,5.9212,0,0,0,0,0,0,0,5.8767,5.8786,5.897,5.8935,5.8939,5.8936,5.895,5.9028,5.9078,5.9011,5.9011,5.9027,5.9125,5.9156,5.9166,5.9288,5.9202,5.9208,5.9213,5.9216,5.9485,5.9488,0,0,0,0,0,0,5.8757,5.8779,5.8966,5.8974,5.885,5.8942,5.8958,5.9003,5.9077,5.9086,5.9029,5.9026,5.9145,5.9158,5.9171,5.9285,5.9209,5.9216,5.922,5.9483,5.9486,5.9489,0,0,0,0,0,0,5.8751,5.8773,5.8961,5.8877,5.89,5.8949,5.9,5.9007,5.9039,5.9091,5.9099,5.9053,5.9144,5.916,5.9248,5.9289,5.922,5.9226,5.9479,5.9484,5.9487,5.9516,0,0,0,0,0,0,5.8744,5.8771,5.8811,5.8878,5.8905,5.9039,5.9003,5.9011,5.9052,5.905,5.9115,5.9123,5.9143,5.9238,5.9256,5.9298,5.9232,5.9476,5.9481,5.9486,5.9512,5.9521,5.9529,0,0,0,0,0,5.8735,5.8813,5.8813,5.8835,5.8955,5.9042,5.9057,5.908,5.9056,5.9094,5.9126,5.9121,5.9282,5.9247,5.9267,5.9312,5.9473,5.948,5.9486,5.9508,5.9519,5.9528,0,0,0,0,0,0,5.8748,5.8822,5.8823,5.8926,5.8977,5.9041,5.909,5.9091,5.915,5.9145,5.9169,5.9183,5.927,5.93,5.9259,5.9407,5.9374,5.9385,5.9384,5.9395,5.9403,5.9393,5.9238,0,0,0,0,0,5.8763,5.883,5.889,5.8975,5.9001,5.9041,5.9079,5.9093,5.9146,5.9168,5.9207,5.9257,5.9319,5.9359,5.9419,5.9516,5.9528,5.9557,5.9566,5.9572,5.958,5.963,5.9643,5.9509,5.9509,5.9509,0,0,5.8795,5.8843,5.8884,5.8978,5.902,5.9085,5.9059,5.913,5.9177,5.9178,5.9263,5.9294,5.9351,5.9443,5.9486,5.9471,5.962,5.958,5.9585,5.959,5.9638,5.9651,5.9662,5.9514,5.9513,5.9512,0,0,5.8885,5.893,5.9004,5.9046,5.911,5.9136,5.9153,5.9217,5.9237,5.9324,5.9324,5.938,5.9486,5.9526,5.956,5.9662,5.9658,5.9681,5.9724,5.9773,5.9783,5.9792,5.9826,5.9838,5.969,5.969,5.969,0,5.8915,5.9016,5.9041,5.9112,5.9152,5.9156,5.9229,5.9268,5.9347,5.9373,5.9356,5.9488,5.9527,5.9627,5.9651,5.968,5.9698,5.9673,5.978,5.979,5.9799,5.983,5.9843,5.9692,5.9692,5.9691,5.9691,0,5.9048,5.9117,5.9169,5.9247,5.9292,5.9364,5.9397,5.944,5.9448,5.9474,5.956,5.9607,5.9675,5.97,5.9709,5.98,5.9788,5.9776,5.9743,5.9813,5.9843,5.9856,5.9695,5.9694,5.9693,5.9693,0,0,5.9151,5.924,5.9258,5.9292,5.9362,5.9414,5.9484,5.9552,5.9587,5.9641,5.9697,5.9786,5.9774,5.9812,5.9825,5.9868,5.9942,5.985,5.9851,5.9863,6.0041,6.0049,6.0063,5.994,5.9943,5.9945,6.0035,0,5.9246,5.9372,5.9396,5.9504,5.9566,5.9571,5.9631,5.9678,5.9704,5.9758,5.9786,5.9847,5.9828,5.9851,5.9894,5.9924,5.9977,5.9918,5.9989,5.9992,5.9973,6.0079,6.0088,6.0171,6.0047,6.005,6.0051,0,5.9374,5.9432,5.9547,5.9606,5.9633,5.9687,5.9749,5.9802,5.9854,5.987,5.9912,5.9919,5.9988,5.9953,6.0046,6.0005,6.0036,6.0054,6.0058,6.0064,6.0024,6.0085,6.0199,6.021,6.007,6.0069,6.0067,0,5.9433,5.954,5.9622,5.9651,5.9722,5.9759,5.979,5.984,5.9879,5.9932,5.9956,6.0017,6.0049,6.0094,6.0116,6.009,6.0206,6.0174,6.0218,6.0217,6.0241,6.0239,6.0359,6.0265,6.0265,6.0264,6.0264,0,5.9536,5.9605,5.9649,5.9699,5.9776,5.9801,5.9875,5.9905,5.9949,6.0002,6.0009,6.0058,6.0086,6.0138,6.0156,6.0228,6.0243,6.0255,6.0258,6.0253,6.0251,6.0272,6.0265,6.0268,6.0267,6.0266,6.0266,0,5.9614,5.9647,5.9736,5.9796,5.9812,5.9866,5.9916,5.9962,5.9988,6.0055,6.0072,6.0111,6.0173,6.02,6.0276,6.0287,6.0369,6.0369,6.0352,6.0352,6.0393,6.0388,6.0529,6.0547,6.0443,6.0444,6.0445,0,5.9677,5.973,5.9796,5.9833,5.9865,5.9925,5.9964,5.9989,6.0029,6.0091,6.0129,6.0192,6.0243,6.0341,6.0374,6.0431,6.0431,6.0476,6.0439,6.0431,6.0428,6.0424,6.0427,6.0482,6.0483,6.0484,6.0485,0,5.9782,5.9795,5.9853,5.9915,5.9962,6.0011,6.006,6.0089,6.0121,6.0165,6.0229,6.0269,6.0346,6.0406,6.0465,6.0493,6.0493,6.0496,6.0509,6.0503,6.049,6.0494,6.0367,6.0493,6.0492,6.0491,6.0491,6.0491,5.9853,5.9899,5.9952,6.0014,6.0054,6.0098,6.0145,6.0176,6.023,6.0296,6.0307,6.0375,6.0422,6.0501,6.0531,6.0582,6.0571,6.059,6.0594,6.0598,6.0599,6.0483,6.0593,6.0593,6.0593,6.0593,6.0593,0,5.9956,5.999,6.0048,6.0115,6.0163,6.0162,6.0214,6.0254,6.0314,6.0359,6.0409,6.048,6.0538,6.0576,6.0634,6.0667,6.0668,6.0681,6.0677,6.0683,6.0607,6.0589,6.0679,6.0679,6.0679,6.0679,6.0679,6.0679,6.0016,6.0093,6.0112,6.0208,6.024,6.0308,6.0337,6.0377,6.0413,6.0493,6.0542,6.0567,6.0608,6.0668,6.072,6.0729,6.0749,6.0762,6.077,6.0698,6.0689,6.068,6.0663,6.0767,6.0767,6.0841,6.0842,6.0842]}]]